STARLINK-5238 (54188 NORAD) Tracking and Keplerian Element Data

This shows tracking and keplerian element data for the satellite.

Feedback or suggestion? Click here.




ElementValue
Catalog54188
NameSTARLINK-5238
Epoch Orbit407
Epoch Day325.25001157
Epoch Year2022
RAAN24.0876
Inclination53.2161
Eccentricity0.000309
Argument of Perigee10.4973
Mean Anonmoly19.3198
Mean Motion15.73199544
Decay Rate0.00031451
L11 54188U 22141AH 22325.25001157 .00031451 00000+0 22764-3 0 9998
L22 54188 53.2161 24.0876 0003090 10.4973 19.3198 15.73199544 4079



Live tracking and technical data element details for STARLINK-5238 (NORAD 54188). STARLINK-5238 can be tracked NOW for your location showing map with azimuth and elevation plus other details from your city location.







IsCatalogInMostPopularTable: catalog: 54188, numindb: 7
Update: records affected: 1



GetName: 54188 STARLINK-5238

Hit Count: updated at: Sun, 04 Dec 2022 23:00:08 GMT